CAPE
0 0 0 0 0 0 0 0 0 0 0 0 0 0 0 0 0 0 0 0 0 0 0 0 0 0 0 0 0 0 0 0 0 12 0 0 0 0 0 0 0 0 1 15
0 0 0 0 0 0 0 0 0 0 0 0 0 0 0 0 0 0 0 0 0 0 1 1 1 22 2 1 0 0 0 0 2 9 2 0 23 2 0 0 0 0 17 19
0 0 0 0 0 0 0 0 9 0 0 0 0 0 0 0 0 0 0 0 0 0 0 0 0 29 17 11 60 787 0 0 0 13 13 2 0 27 0 1 0 0 7 1
0 1 0 0 0 0 0 0 3 0 11 26 0 0 0 0 0 0 0 0 0 0 1 12 42 23 0 8 18 0 0 26 0 0 53 29 0 6 23 0 3 0 0 0
0 1 0 0 0 0 0 0 0 0 0 0 39 0 0 0 0 0 0 0 0 88 61 33 24 28 0 0 2 0 0 7 15 37 62 65 8 31 10 14 4 0 25 0
0 1 0 0 0 0 0 0 0 0 0 27 213 206 50 15 0 0 18 30 152 68 49 8 0 0 0 4 17 1 0 0 35 115 18 1 1 0 8 0 17 182 105 100
1 1 0 0 0 0 0 0 0 0 0 6 287 61 71 92 68 39 34 10 4 34 0 0 0 0 0 0 0 0 0 0 0 31 0 26 0 1 0 0 55 159 97 20
0 2 2 0 1 0 0 0 0 0 0 0 6 0 10 47 84 82 0 0 0 0 2 0 0 0 0 0 0 0 0 0 0 50 0 0 0 1 0 0 0 41 73 0
1 2 2 3 1 0 0 0 0 0 0 0 0 0 0 62 92 114 122 9 0 0 0 0 0 1 0 30 0 0 0 0 0 0 0 0 0 0 0 0 0 0 0 0
0 0 1 5 3 0 0 0 0 0 0 0 0 0 0 3 86 92 74 8 58 0 0 0 0 0 3 6 7 0 0 0 2 0 0 0 0 0 0 0 0 0 0 0
0 0 0 4 4 0 0 0 0 0 0 0 0 0 0 0 27 1 0 14 36 55 105 0 0 0 0 0 0 0 0 0 0 0 0 0 0 1 30 0 0 0 0 0
0 0 1 2 5 0 0 0 0 0 0 0 0 0 0 0 0 0 0 41 0 32 0 0 0 7 0 0 0 0 0 0 28 51 16 0 0 4 0 0 0 0 0 0
2 2 1 5 2 0 1 0 0 0 0 0 0 0 0 0 0 0 0 0 0 1 0 0 0 2 0 0 0 0 0 0 123 0 7 0 0 0 0 0 0 0 0 0
5 3 5 10 6 0 2 0 0 0 0 0 0 0 0 0 0 0 0 0 0 0 0 0 0 0 0 0 0 0 0 0 0 0 0 0 0 0 0 0 0 0 0 0
3 3 8 10 1 0 0 0 0 0 0 0 0 0 0 0 0 0 0 0 0 0 0 0 0 0 0 0 0 0 0 0 0 13 0 0 0 0 0 0 0 0 0 0
3 3 5 0 0 0 0 0 0 0 0 0 0 0 0 0 0 0 0 0 0 0 0 0 0 0 0 0 0 0 0 0 0 80 0 0 0 0 0 0 0 0 0 0
3 1 0 0 0 0 0 0 0 0 0 0 0 0 0 0 0 0 0 0 0 0 0 0 0 0 0 0 0 0 0 0 0 0 0 0 0 0 0 0 0 0 0 0
1 0 0 0 0 0 0 0 0 0 0 0 0 0 0 0 0 0 0 0 0 0 0 0 0 0 0 0 0 0 0 0 0 0 0 0 0 0 0 0 0 0 0 0
0 0 0 0 0 0 0 0 0 0 0 0 0 0 0 0 0 0 0 0 0 0 0 0 0 0 0 0 0 0 0 0 0 0 0 0 0 0 0 0 0 0 0 0
0 0 0 0 0 0 0 0 0 0 0 0 0 0 0 0 0 0 0 0 0 0 0 0 0 0 3 1 0 0 0 0 0 0 0 0 0 0 0 0 0 0 0 0
0 0 0 0 0 0 0 0 0 0 0 0 0 0 0 0 0 0 0 0 0 2 0 0 0 229 482 4 0 0 0 0 0 0 0 0 0 0 0 0 0 0 0 0
1 1 0 0 0 0 0 0 0 0 0 2 0 0 0 0 0 21 1 3 0 21 10 59 141 356 48 8 5 2 0 0 0 0 0 0 0 0 0 0 0 0 0 0
0 0 0 11 1 3 0 0 0 0 0 10 0 0 3 0 0 3 50 16 22 0 13 24 262 208 1 0 0 0 0 0 0 0 0 0 6 5 7 0 0 0 0 0
0 2 12 10 2 6 3 2 3 22 20 14 20 1 0 0 0 5 34 39 23 32 26 5 127 0 14 10 0 0 0 0 0 0 0 6 3 0 0 0 0 0 0 0
12 22 5 0 5 1 0 0 4 3 0 2 22 16 1 8 13 7 39 60 45 37 48 61 41 11 15 9 3 0 0 2 0 3 5 0 0 0 0 0 0 0 0 0
7 18 2 8 4 0 0 1 0 2 14 0 6 5 7 9 15 27 64 51 47 47 46 51 57 37 8 3 0 0 18 0 0 22 17 5 14 24 16 11 0 0 0 0
8 0 0 0 0 0 0 1 1 0 3 11 3 14 19 1 17 33 9 21 10 39 85 63 54 37 15 1 0 0 0 30 0 0 0 0 0 0 0 1 16 5 19 0
CIN
0 0 0 0 0 0 0 0 0 0 0 0 0 0 0 0 0 0 0 0 0 -3 0 0 0 0 0 0 0 0 0 0 0 -161 -9 0 0 -12 0 0 0 0 -13 -235
0 0 0 0 0 -1 0 0 0 0 0 0 0 0 0 0 0 0 0 0 0 0 -132 -46 -55 -217 -233 -95 0 0 0 0 -14 -144 -19 0 -208 -63 0 0 0 0 -245 -201
0 0 0 0 0 0 0 0 -100 0 0 0 0 0 0 0 0 0 0 0 0 0 0 0 -31 -222 -275 -411 -414 -548 0 0 0 -82 -145 -162 -67 -228 0 -113 -14 0 -162 -307
0 0 0 0 0 0 0 0 -39 0 -297 -117 0 0 0 0 0 0 0 0 0 0 -129 -232 -240 -358 -79 -356 -549 -1 0 -238 0 -28 -349 -305 -36 -298 -293 0 -281 0 0 -268
0 -1 -1 0 0 0 0 0 0 0 0 -2 -303 0 -3 0 0 0 0 0 -3 -130 -105 -158 -194 -311 -5 0 -367 0 0 -352 -379 -273 -325 -317 -244 -298 -295 -235 -377 -1 -313 -6
-2 -1 -4 0 0 0 0 0 0 0 0 -381 -247 -262 -277 -204 0 -5 -44 -90 -150 -130 -171 -208 0 0 0 -180 -220 -95 0 0 -241 -95 -386 -254 -151 0 -290 -33 -315 -245 -153 -193
-4 -1 0 -1 0 0 0 0 0 0 0 -80 -291 -402 -305 -263 -213 -86 -82 -89 -51 -437 0 0 0 0 0 0 0 0 0 0 0 -200 0 -94 0 -18 0 -181 -277 -227 -342 -480
0 -1 -3 0 -3 0 0 0 0 0 0 0 -179 0 -341 -292 -278 -113 0 0 0 0 -204 0 0 0 0 0 0 0 0 0 0 -125 0 0 0 -51 0 0 0 -245 -283 0
0 0 0 -1 -2 0 0 0 0 0 0 0 0 0 0 -351 -324 -206 -206 -361 0 0 0 0 0 -15 0 -128 0 0 0 0 0 0 -10 0 0 0 0 0 0 0 0 0
0 0 0 0 -3 0 0 0 0 0 0 0 0 0 0 -400 -413 -377 -446 -142 -243 0 0 0 0 0 -53 -41 -101 0 0 0 -73 0 0 0 0 0 0 0 0 0 0 0
0 0 0 0 -2 0 0 0 0 0 0 0 0 0 0 0 -530 -414 -136 -33 -106 -121 -150 0 0 0 0 0 0 0 0 0 0 -8 0 -31 0 -10 -26 0 0 0 0 0
0 0 0 0 -3 0 0 0 0 0 0 0 0 0 0 0 0 -326 0 -304 0 -348 0 0 0 -80 0 0 0 0 0 0 -70 -113 -78 0 0 -17 0 0 0 0 0 0
0 0 0 -1 -2 0 0 0 0 0 0 0 0 0 0 0 0 0 0 0 0 -204 0 0 0 -104 0 0 0 0 0 0 -142 -2 -156 0 0 0 0 0 0 0 0 0
0 0 -4 -6 -6 0 0 0 0 0 0 0 0 0 0 0 0 0 0 0 0 0 0 0 0 0 0 0 0 0 0 0 -91 0 0 0 0 0 0 0 0 0 0 0
0 0 -6 -6 -4 0 0 0 0 0 0 0 0 0 0 0 0 0 0 0 0 0 0 0 0 0 0 0 0 0 0 0 0 -186 -179 0 0 0 0 0 0 0 0 0
0 -1 -7 -1 0 0 0 0 0 0 0 0 0 0 0 0 0 0 0 0 0 0 0 0 0 0 0 0 0 0 0 0 0 -137 0 0 0 0 0 0 0 0 0 0
0 0 0 0 0 0 0 0 0 0 0 0 0 0 0 0 0 0 0 0 0 0 0 0 0 0 0 0 0 0 0 0 0 0 0 0 0 0 0 0 0 0 0 0
0 0 0 0 0 0 0 0 0 0 0 0 0 0 0 0 0 0 0 0 0 0 0 0 0 0 0 0 0 0 0 0 0 0 0 0 0 0 0 0 0 0 0 0
0 0 0 0 0 0 0 0 0 0 0 0 0 0 0 0 0 0 0 0 0 0 0 0 0 0 0 0 0 0 0 0 0 0 0 0 0 0 0 0 0 0 0 0
0 0 0 0 0 0 0 0 0 0 0 0 0 0 0 0 0 0 0 0 0 0 0 0 0 0 -6 -4 0 0 0 0 0 0 0 0 0 0 0 0 0 0 0 0
0 0 0 0 0 0 0 0 0 0 0 0 0 0 0 0 0 0 0 0 -24 -8 0 -3 0 -62 -97 -85 0 0 0 0 0 0 0 0 0 0 0 0 0 0 0 0
0 0 0 0 0 0 0 0 0 0 0 -43 0 0 0 0 0 -57 -38 -19 0 -17 -167 -32 -51 -69 -154 -149 -150 -164 0 0 0 0 0 0 0 0 -31 -26 0 0 0 0
0 0 0 -42 -21 -5 0 0 0 0 0 -53 0 0 -98 0 0 -60 -64 -30 -31 0 -40 -37 -72 -98 -26 0 0 -30 0 0 0 0 0 0 -147 -166 -146 0 0 0 0 0
0 -54 -16 -7 -4 -15 -28 -53 -65 -46 -77 -106 -64 -21 0 0 0 -67 -19 -55 -56 -27 -18 -22 -115 0 -171 -181 0 -24 0 0 0 0 0 -140 -110 0 0 0 0 0 0 0
-70 -35 -17 -1 -8 -13 -5 -9 -81 -90 0 -30 -59 -65 -73 -57 -26 -57 -37 -23 -22 -26 -28 -100 -113 -140 -142 -147 -119 0 0 -112 0 -60 -42 0 0 0 0 0 0 0 0 0
-61 -23 -12 -23 -21 0 0 -50 -34 -40 -93 0 -115 -93 -71 -55 -45 -23 -11 -17 -20 -31 -77 -108 -104 -67 -94 -103 0 0 -129 0 0 -156 -140 -128 -153 -107 -105 -124 0 0 0 0
-40 -13 0 0 0 -3 -1 -8 -50 0 -78 -70 -101 -29 -20 -4 -23 -4 -78 -62 -81 -108 -70 -90 -76 -61 -71 -98 0 0 0 -86 0 0 0 0 0 0 0 -39 -85 -95 -128 0
Wind_Speed
16 18 20 21 21 26 8 4 2 4 5 5 2 3 5 5 9 7 8 6 2 4 3 2 2 6 5 7 14 9 9 7 3 4 1 7 7 4 7 7 2 1 2 7
16 17 19 20 17 13 5 3 4 2 4 1 3 7 7 5 14 12 5 3 4 4 6 5 1 4 6 17 8 5 5 2 5 3 6 5 8 2 6 9 5 3 5 7
15 17 18 21 21 16 4 1 4 5 4 2 1 5 8 6 6 11 5 3 4 4 1 4 5 6 5 10 7 9 9 5 7 8 6 4 4 3 5 7 5 6 7 5
15 16 20 21 25 21 3 2 2 1 4 5 6 4 6 15 10 5 6 4 1 4 3 4 2 5 6 6 13 7 8 6 6 6 5 3 3 4 6 4 7 7 7 8
13 17 18 19 24 19 3 3 4 6 4 5 7 3 4 5 14 2 9 3 5 4 7 7 8 6 2 5 7 6 8 4 3 1 3 4 5 10 9 7 9 5 6 11
12 16 15 16 18 15 4 4 4 4 4 5 5 4 8 16 7 4 1 5 7 6 6 2 4 4 2 7 5 2 5 7 4 5 3 4 6 6 4 4 9 8 6 8
12 15 17 14 12 7 2 4 1 3 5 2 4 10 11 16 14 3 2 11 7 3 10 6 9 8 8 7 6 3 5 5 4 2 3 1 10 4 8 3 9 8 5 7
11 11 13 15 11 9 1 3 1 1 4 4 10 17 12 9 10 8 4 5 6 12 4 6 5 6 6 4 6 2 6 5 3 6 5 5 2 5 8 5 5 5 14 10
10 11 12 14 11 12 2 3 2 0 2 5 6 5 6 4 6 9 7 8 4 6 4 3 4 4 5 3 4 3 5 6 6 3 3 4 6 5 8 6 3 2 16 17
10 11 12 13 11 12 3 4 2 2 1 5 3 3 4 4 4 2 4 8 9 5 3 2 3 4 5 5 7 4 2 1 4 3 3 3 3 7 4 6 8 5 7 12
10 11 12 12 10 11 5 6 3 3 3 8 5 2 1 5 2 1 6 5 7 5 6 2 4 2 2 4 1 6 6 5 2 3 3 2 2 5 2 6 4 9 7 5
10 11 11 11 10 9 8 3 4 2 4 9 4 14 20 12 17 4 2 8 3 3 4 3 1 4 4 2 1 6 3 6 7 7 7 6 4 7 6 10 13 5 9 6
11 11 12 11 9 8 2 4 4 3 3 7 3 7 13 7 14 7 3 3 4 4 4 4 3 4 3 2 3 3 7 2 5 6 4 5 8 5 5 7 11 8 7 7
10 11 12 11 8 8 5 2 2 0 3 2 9 5 7 8 5 8 6 5 6 1 3 2 1 1 2 4 3 3 5 3 4 1 4 7 5 8 13 12 12 13 9 8
11 11 11 10 10 11 7 5 4 4 2 3 7 13 7 7 7 5 4 5 3 1 2 2 3 2 3 2 3 3 1 5 4 6 6 5 6 8 14 15 12 11 13 8
12 11 10 9 10 11 2 3 1 1 1 1 5 6 7 1 7 7 2 2 1 3 4 3 3 3 5 3 2 5 2 4 4 5 5 7 10 11 6 12 11 8 10 9
12 12 11 10 9 1 3 3 2 2 4 2 6 6 6 5 4 3 1 3 2 3 2 1 2 3 5 3 2 5 5 6 7 5 9 8 6 7 8 13 10 10 8 7
13 13 13 12 12 7 6 5 12 6 2 1 2 6 6 1 0 1 1 0 3 3 3 2 1 3 3 1 4 5 3 7 7 5 4 6 9 10 8 9 10 10 9 8
14 14 16 4 1 2 4 5 11 1 3 2 1 2 4 4 1 2 4 3 1 2 3 3 5 1 3 8 6 7 8 6 7 6 8 12 13 11 9 10 9 10 8 8
14 3 1 2 3 5 5 3 2 3 1 0 3 2 4 2 1 2 2 1 3 0 6 3 4 4 4 5 9 7 7 8 7 6 4 6 7 12 10 10 9 10 10 8
2 2 2 3 3 3 0 1 2 2 3 4 5 6 3 3 1 4 2 3 1 1 5 5 0 2 2 2 6 5 6 6 6 3 4 9 11 10 9 7 8 7 8 9
3 4 5 3 1 1 1 3 2 4 5 4 4 5 6 4 2 2 3 1 3 2 3 2 3 2 1 5 5 5 6 7 8 6 4 7 9 8 8 7 7 7 7 8
2 2 2 1 2 1 4 4 4 3 3 2 0 1 2 3 3 2 2 3 2 1 3 0 2 1 2 3 4 7 6 8 8 7 8 9 8 6 7 7 3 5 6 7
2 1 3 3 4 4 3 3 3 4 3 4 4 2 2 1 3 1 2 3 2 2 1 2 2 3 3 5 5 9 8 8 8 6 5 7 8 7 7 8 7 6 5 6
2 2 3 4 3 4 3 4 2 3 2 4 4 4 2 2 2 1 1 0 2 1 1 2 1 2 5 6 5 6 7 7 7 6 2 2 5 6 7 7 7 6 6 7
2 3 3 4 1 4 4 3 4 3 4 3 3 2 4 3 2 2 4 3 2 2 1 2 3 3 4 4 5 5 5 5 4 5 5 5 7 4 2 3 5 6 7 8
3 3 3 6 2 0 4 4 5 4 4 2 3 3 3 1 1 2 4 2 3 3 2 2 4 4 3 2 0 2 2 2 3 1 1 2 2 3 4 5 5 6 7 7
Wind_Direction
330 333 338 337 338 340 29 337 14 192 132 75 178 193 216 282 293 296 275 230 92 122 197 81 138 210 274 288 200 172 195 143 102 160 228 76 99 123 117 108 292 6 141 269
332 335 339 335 338 1 328 339 270 277 73 151 293 296 288 263 275 276 275 322 51 126 197 115 89 13 333 23 62 144 191 36 91 13 340 344 79 341 138 88 96 208 153 258
334 339 340 336 333 332 164 21 3 324 26 125 52 315 283 259 275 275 221 231 64 74 49 2 184 50 350 339 23 20 88 67 135 170 176 171 72 110 78 107 135 171 227 233
337 344 350 341 339 348 130 147 291 197 310 324 326 252 264 283 295 310 355 359 140 115 91 6 50 75 350 305 342 40 82 86 77 47 91 10 121 172 164 152 161 161 222 232
337 349 351 348 347 352 14 42 32 341 280 295 294 347 355 283 281 170 313 10 22 96 150 185 211 124 159 242 328 60 353 125 97 26 246 182 185 188 205 187 178 265 181 223
333 351 353 352 360 354 15 318 330 111 274 322 348 339 305 323 289 345 282 252 113 99 179 151 48 66 246 168 154 80 97 125 95 243 9 298 356 228 156 181 190 168 161 208
333 347 353 355 4 43 232 267 331 27 289 309 334 311 330 338 326 96 337 78 84 3 119 79 41 34 4 360 268 159 120 82 114 193 5 44 236 93 159 163 161 201 94 133
333 338 343 353 349 354 225 269 57 27 305 325 309 340 341 331 353 354 75 15 130 162 82 71 55 349 14 299 270 335 102 131 130 148 185 274 298 164 174 156 331 178 137 122
331 335 340 343 345 345 293 261 199 298 100 249 324 301 336 348 332 352 353 338 320 131 99 77 127 173 221 254 295 39 61 111 127 108 168 210 249 327 142 103 9 148 140 148
328 334 338 334 345 344 326 279 279 77 278 272 57 335 313 327 341 319 313 330 344 45 84 86 172 216 200 168 166 181 99 335 175 184 187 277 269 297 117 116 216 128 145 155
323 330 333 328 345 346 5 277 249 96 277 275 240 260 211 352 40 94 283 33 354 12 49 115 257 125 277 62 302 156 157 135 209 72 90 252 257 359 101 187 41 98 90 100
322 322 324 324 337 344 356 294 325 319 187 249 243 263 260 208 225 169 322 178 226 228 54 350 322 30 35 176 22 340 15 181 177 158 208 233 310 133 120 128 123 121 116 125
317 317 318 312 319 330 16 276 293 345 302 303 340 249 258 208 217 185 96 284 206 2 169 173 244 75 112 78 263 37 327 95 106 69 306 134 106 64 96 134 119 125 117 127
315 316 312 313 313 311 310 255 269 179 270 284 282 318 310 310 189 183 191 207 22 52 88 146 153 125 146 205 202 142 209 47 138 4 60 70 25 117 124 105 104 101 89 98
318 310 310 314 318 311 288 227 231 204 152 247 282 311 257 245 158 141 69 90 106 93 351 69 235 238 79 344 64 346 311 192 137 213 203 138 180 162 137 128 130 125 117 102
312 311 311 314 318 331 317 6 30 84 155 73 312 290 303 26 126 132 140 142 114 120 144 219 275 267 107 99 169 261 317 42 159 164 170 140 148 154 144 132 142 133 129 134
312 308 304 301 306 318 205 222 221 120 11 67 313 312 274 185 86 9 18 25 195 128 153 216 194 301 86 96 150 267 117 98 56 100 92 71 144 151 138 131 127 127 136 139
308 301 295 293 288 263 288 242 242 159 179 121 260 272 345 53 68 347 152 95 19 336 186 16 117 345 68 101 247 165 156 109 90 81 112 147 124 114 121 124 129 126 138 150
300 300 297 304 130 236 246 107 128 131 135 201 261 218 262 351 312 200 346 98 78 292 169 233 103 319 179 215 164 165 178 160 167 111 110 129 139 144 140 137 147 147 171 171
300 296 341 290 243 117 110 23 32 10 288 39 228 260 269 71 8 286 89 22 198 176 243 97 111 238 273 271 184 164 150 144 127 98 93 118 142 162 168 176 171 169 179 186
25 333 264 313 306 23 38 237 168 181 248 210 230 196 212 293 142 225 176 197 191 125 270 126 206 344 318 19 95 118 98 80 55 100 190 165 170 174 172 182 184 172 173 176
315 280 276 287 309 20 229 240 254 181 230 209 191 213 185 261 134 90 336 133 33 268 311 121 101 255 238 92 89 86 67 46 20 356 288 203 169 174 178 176 175 175 169 159
227 223 269 249 248 37 205 223 261 253 253 266 203 12 144 4 40 53 50 64 245 348 24 335 160 178 58 75 44 63 50 53 43 33 71 91 88 82 113 122 162 164 171 176
262 155 326 190 242 230 197 262 265 297 11 352 89 12 94 325 56 122 67 266 64 352 285 233 232 202 91 55 63 65 40 34 36 62 97 115 120 125 129 134 138 137 185 207
262 163 229 231 266 267 270 261 329 259 221 64 20 4 57 20 78 55 90 144 262 207 349 214 216 239 97 76 59 57 50 44 40 21 7 197 173 170 181 186 181 184 186 186
257 239 275 276 11 323 337 327 309 317 359 47 55 97 43 351 23 323 215 160 55 294 195 167 158 97 70 63 49 49 66 82 68 53 46 34 32 17 262 286 253 221 211 214
277 266 262 243 265 202 308 349 339 316 84 84 81 75 214 346 229 219 33 66 259 246 117 161 145 132 125 122 124 278 272 197 189 202 309 294 324 337 356 335 303 273 242 228